Change the Weather History Date:

Wednesday, January 22, 2014

  Actual Average Record
Temperature  
Mean Temperature 29 °F 44 °F  
Max Temperature 36 °F 54 °F 75 °F (1999)
Min Temperature 22 °F 33 °F 21 °F (2000)
Degree Days  
Heating Degree Days 36 22  
Month to date heating degree days 484 483  
Since 1 July heating degree days 1481 1533  
Cooling Degree Days 0 0  
Month to date cooling degree days 0 0  
Year to date cooling degree days 0 0  
Moisture  
Dew Point 16 °F    
Average Humidity 55    
Maximum Humidity 81    
Minimum Humidity 29    
Precipitation  
Precipitation 0.00 in 0.10 in 0.34 in (2007)
Month to date precipitation 2.77 1.92  
Year to date precipitation 2.77 1.92  
Sea Level Pressure  
Sea Level Pressure 29.98 in    
Wind  
Wind Speed 7 mph (NNW)    
Max Wind Speed 23 mph    
Max Gust Speed 30 mph    
Visibility 10 miles    
Events      
T = Trace of Precipitation, MM = Missing Value Source: NWS Daily Summary

Daily Weather History Graph

Daily Weather History Graph

Search for Another Location

Airport or City:

Trip Planner

Search our weather history database for the weather conditions in past years. The results will help you decide how hot, cold, wet, or windy it might be!

Date:

Astronomy

Jan. 22, 2014 Rise Set
Actual Time 7:20 AM EST 5:35 PM EST
Civil Twilight 6:53 AM EST 6:02 PM EST
Nautical Twilight 6:22 AM EST 6:33 PM EST
Astronomical Twilight 5:52 AM EST 7:03 PM EST
Moon 11:48 PM EST (1/22) 10:37 AM EST (1/22)
Length of Visible Light 11h 09m
Length of Day
10h 15m
Waning Gibbous, 65% of the Moon is Illuminated
Jan 22
Waning Gibbous
Jan 24
Last Quarter
Jan 30
New
Feb 6
First Quarter
Feb 14
Full

Hourly Weather History & Observations

Time (EST) Temp. Windchill Dew Point Humidity Pressure Visibility Wind Dir Wind Speed Gust Speed Precip Events Conditions
12:31 AM 35.1 °F 26.9 °F 28.0 °F 76% 29.80 in 10.0 mi North 11.5 mph - N/A   Overcast
12:54 AM 35.1 °F 25.5 °F 27.0 °F 72% 29.82 in 10.0 mi North 15.0 mph 23.0 mph N/A   Overcast
1:43 AM 30.0 °F 20.0 °F 21.9 °F 72% 29.84 in 10.0 mi North 12.7 mph - N/A   Scattered Clouds
1:54 AM 30.0 °F 21.1 °F 21.0 °F 69% 29.85 in 10.0 mi North 10.4 mph - N/A   Partly Cloudy
2:50 AM 30.2 °F 24.3 °F 21.2 °F 69% 29.88 in 10.0 mi North 5.8 mph - N/A   Mostly Cloudy
2:54 AM 30.0 °F 21.1 °F 21.9 °F 72% 29.88 in 10.0 mi North 10.4 mph - N/A   Mostly Cloudy
3:21 AM 28.9 °F 22.8 °F 21.9 °F 75% 29.89 in 10.0 mi North 5.8 mph - N/A   Scattered Clouds
3:54 AM 28.9 °F 22.8 °F 21.9 °F 75% 29.90 in 10.0 mi North 5.8 mph - N/A   Clear
4:54 AM 30.0 °F 23.2 °F 23.0 °F 75% 29.91 in 10.0 mi NNW 6.9 mph - N/A   Overcast
5:39 AM 30.0 °F 20.0 °F 18.0 °F 61% 29.92 in 10.0 mi NNW 12.7 mph - N/A   Overcast
5:54 AM 30.0 °F 21.1 °F 18.0 °F 61% 29.94 in 10.0 mi NW 10.4 mph - N/A   Overcast
6:54 AM 28.0 °F 17.0 °F 14.0 °F 56% 29.98 in 10.0 mi NNW 13.8 mph 21.9 mph N/A   Partly Cloudy
7:54 AM 27.0 °F 18.7 °F 12.9 °F 56% 30.00 in 10.0 mi NNW 8.1 mph - N/A   Clear
8:54 AM 28.0 °F 17.0 °F 12.0 °F 51% 30.02 in 10.0 mi NNW 13.8 mph - N/A   Clear
9:54 AM 30.0 °F 19.5 °F 12.0 °F 47% 30.04 in 10.0 mi NNW 13.8 mph 20.7 mph N/A   Clear
10:54 AM 30.9 °F 22.2 °F 12.9 °F 47% 30.06 in 10.0 mi WNW 10.4 mph 18.4 mph N/A   Clear
11:54 AM 32.0 °F 26.4 °F 14.0 °F 48% 30.04 in 10.0 mi North 5.8 mph 16.1 mph N/A   Clear
12:54 PM 34.0 °F 25.5 °F 10.9 °F 38% 30.01 in 10.0 mi WNW 11.5 mph 18.4 mph N/A   Partly Cloudy
1:54 PM 35.1 °F 26.4 °F 7.0 °F 31% 30.01 in 10.0 mi WNW 12.7 mph - N/A   Clear
2:54 PM 36.0 °F 32.1 °F 8.1 °F 31% 29.99 in 10.0 mi Variable 4.6 mph - N/A   Clear
3:54 PM 36.0 °F 28.0 °F 6.1 °F 29% 30.01 in 10.0 mi West 11.5 mph - N/A   Clear
4:54 PM 35.1 °F 29.3 °F 6.1 °F 30% 30.02 in 10.0 mi WNW 6.9 mph - N/A   Clear
5:54 PM 32.0 °F - 8.1 °F 37% 30.04 in 10.0 mi Calm Calm - N/A   Clear
6:54 PM 28.0 °F - 16.0 °F 61% 30.07 in 10.0 mi Calm Calm - N/A   Clear
7:54 PM 26.1 °F - 15.1 °F 63% 30.08 in 10.0 mi Calm Calm - N/A   Clear
8:54 PM 25.0 °F - 14.0 °F 63% 30.09 in 10.0 mi Calm Calm - N/A   Clear
9:54 PM 24.1 °F - 17.1 °F 75% 30.10 in 10.0 mi Calm Calm - N/A   Clear
10:54 PM 23.0 °F - 17.1 °F 78% 30.12 in 10.0 mi Calm Calm - N/A   Clear
11:54 PM 21.9 °F - 18.0 °F 85% 30.12 in 10.0 mi Calm Calm - N/A   Clear